Starlink 30611

operational
NORAD ID: 58108 Int'l Des: 2023-161 Owner: SPXS Country: US Constellation: starlink
LEOCIRCULAR

About Starlink 30611

Description loading...

Live Position

Loading 3D Globe...

Upcoming Passes

Altitude History

Altitude vs Time

uPlot chart will show altitude changes over time

Two-Line Element Set

1 58108U 23161M 25347.31110311 .00000657 00000-0 34326-4 0 9997
2 58108 53.1598 193.9743 0001554 92.7278 267.3900 15.30188457121374
Epoch: Dec 13, 2025 • Age: 18 hours

Current Status

Altitude 475.1 km
Velocity 7.63 km/s
Sub-Earth Point 18.04°N, 107.42°W
Launch Date Oct 21, 2023
Age 2.1 years
Type internet

Technical Details

Classification Payload
Mass 730.00 kg
Dry Mass 700.00 kg
Total Mass 730.00 kg
Length 0.30 m
Diameter 4.10 m
Span 29.00 m
Shape Box + pan
Manufacturer SPXS
Bus Type Starlink V2M
Phase Status In Orbit
Owner/State SPXS/US

Large Constellations

Loading constellations...